OK2ILA-6 Weather Reports


time (UTC)temp
C
wind
direction
speed
KPH
gust
KPH
rain 1hr
cm
rain 24hr
cm
rain mn
cm
humidity
%
barometer
mb
20260504082002 22 0.0 0.0 0.00 0.00 0.00 40 1014.4
20260504081002 22 0.0 0.0 0.00 0.00 0.00 40 1014.6
20260504050002 15 0.0 0.0 0.00 0.00 0.00 54 1014.6
20260504045002 14 0.0 0.0 0.00 0.00 0.00 52 1014.6
20260504044003 14 0.0 0.0 0.00 0.00 0.00 55 1014.6
20260504043003 13 0.0 0.0 0.00 0.00 0.00 54 1014.6
20260504042003 13 0.0 0.0 0.00 0.00 0.00 55 1014.6
20260504041002 13 0.0 0.0 0.00 0.00 0.00 55 1014.5
20260504040002 13 0.0 0.0 0.00 0.00 0.00 54 1014.5
20260504035003 13 0.0 0.0 0.00 0.00 0.00 54 1014.4
20260504034003 13 0.0 0.0 0.00 0.00 0.00 53 1014.4
20260504033003 13 0.0 0.0 0.00 0.00 0.00 52 1014.3
20260504032002 13 0.0 0.0 0.00 0.00 0.00 51 1014.2
20260504031002 13 0.0 0.0 0.00 0.00 0.00 50 1014.3
20260504030003 13 0.0 0.0 0.00 0.00 0.00 50 1014.2
20260504025003 13 0.0 0.0 0.00 0.00 0.00 50 1014.2
20260504024003 14 0.0 0.0 0.00 0.00 0.00 49 1014.1
20260504023002 13 0.0 0.0 0.00 0.00 0.00 50 1014.1
20260504022002 13 0.0 0.0 0.00 0.00 0.00 50 1014.0
20260504021003 13 0.0 0.0 0.00 0.00 0.00 49 1014.0
20260504020003 13 0.0 0.0 0.00 0.00 0.00 48 1014.0
20260504015003 13 0.0 0.0 0.00 0.00 0.00 48 1014.0
20260504014002 13 0.0 0.0 0.00 0.00 0.00 48 1014.0
20260504013002 13 0.0 0.0 0.00 0.00 0.00 48 1014.0
20260504012003 13 0.0 0.0 0.00 0.00 0.00 48 1014.0
20260504011003 13 0.0 0.0 0.00 0.00 0.00 48 1014.0
20260504010003 14 0.0 0.0 0.00 0.00 0.00 47 1014.0
20260504005002 14 0.0 0.0 0.00 0.00 0.00 48 1014.2
20260504004002 14 0.0 0.0 0.00 0.00 0.00 47 1014.2
20260504003003 14 0.0 0.0 0.00 0.00 0.00 48 1014.0
20260504002003 14 0.0 0.0 0.00 0.00 0.00 47 1014.2
20260504001003 14 0.0 0.0 0.00 0.00 0.00 46 1014.2
20260504000002 14 0.0 0.0 0.00 0.00 0.00 45 1014.2
20260503235002 14 0.0 0.0 0.00 0.00 0.00 46 1014.2
20260503234003 15 0.0 0.0 0.00 0.00 0.00 46 1014.2
20260503233003 15 0.0 0.0 0.00 0.00 0.00 46 1014.2
20260503232002 15 0.0 0.0 0.00 0.00 0.00 46 1014.4
20260503231002 15 0.0 0.0 0.00 0.00 0.00 46 1014.6
20260503230002 15 0.0 0.0 0.00 0.00 0.00 46 1014.6
20260503225003 15 0.0 0.0 0.00 0.00 0.00 46 1014.6
20260503224003 15 0.0 0.0 0.00 0.00 0.00 46 1014.6
20260503223003 15 0.0 0.0 0.00 0.00 0.00 46 1014.7
20260503222002 15 0.0 0.0 0.00 0.00 0.00 46 1014.7
20260503221002 15 0.0 0.0 0.00 0.00 0.00 46 1014.7
20260503220003 15 0.0 0.0 0.00 0.00 0.00 46 1014.8
20260503215003 15 0.0 0.0 0.00 0.00 0.00 46 1015.0
20260503214002 15 0.0 0.0 0.00 0.00 0.00 46 1014.8
20260503213002 15 0.0 0.0 0.00 0.00 0.00 47 1015.0
20260503212003 15 0.0 0.0 0.00 0.00 0.00 48 1015.0
20260503211003 15 0.0 0.0 0.00 0.00 0.00 47 1015.0
20260503210003 15 0.0 0.0 0.00 0.00 0.00 48 1015.2
20260503205002 14 0.0 0.0 0.00 0.00 0.00 52 1015.2
20260503204002 14 0.0 0.0 0.00 0.00 0.00 52 1015.2
20260503203003 15 0.0 0.0 0.00 0.00 0.00 48 1015.2
20260503202003 15 0.0 0.0 0.00 0.00 0.00 47 1015.2
20260503201003 15 0.0 0.0 0.00 0.00 0.00 48 1015.3
20260503200003 15 0.0 0.0 0.00 0.00 0.00 46 1015.2
20260503195002 15 0.0 0.0 0.00 0.00 0.00 46 1015.4
20260503194003 15 0.0 0.0 0.00 0.00 0.00 46 1015.4
20260503193003 15 0.0 0.0 0.00 0.00 0.00 44 1015.2
20260503192003 15 0.0 0.0 0.00 0.00 0.00 47 1015.3
20260503191002 16 0.0 0.0 0.00 0.00 0.00 46 1015.4
20260503190002 16 0.0 0.0 0.00 0.00 0.00 44 1015.3
20260503185003 16 0.0 0.0 0.00 0.00 0.00 47 1015.2
20260503184003 16 0.0 0.0 0.00 0.00 0.00 46 1015.2
20260503182002 18 0.0 0.0 0.00 0.00 0.00 44 1014.8
20260503181003 18 0.0 0.0 0.00 0.00 0.00 42 1014.8
20260503180003 18 0.0 0.0 0.00 0.00 0.00 42 1014.9
20260503175003 20 0.0 0.0 0.00 0.00 0.00 40 1014.8
20260503174002 20 0.0 0.0 0.00 0.00 0.00 38 1014.6
20260503173002 20 0.0 0.0 0.00 0.00 0.00 38 1014.8
20260503172003 21 0.0 0.0 0.00 0.00 0.00 37 1014.7
20260503171003 21 0.0 0.0 0.00 0.00 0.00 36 1014.6
20260503151002 24 0.0 0.0 0.00 0.00 0.00 34 1014.8